TimeMDT,TemperatureF,Dew PointF,Humidity,Sea Level PressureIn,VisibilityMPH,Wind Direction,Wind SpeedMPH,Gust SpeedMPH,PrecipitationIn,Events,Conditions,WindDirDegrees,DateUTC
12:51 AM,41.0,28.9,62,29.94,-9999.0,Calm,Calm,-,N/A,,Unknown,0,2013-06-14 06:51:00
1:51 AM,35.1,34.0,96,29.99,-9999.0,North,8.1,-,0.04,,Unknown,350,2013-06-14 07:51:00
2:51 AM,34.0,33.1,96,29.99,-9999.0,SW,3.5,-,0.01,,Unknown,230,2013-06-14 08:51:00
3:51 AM,34.0,33.1,96,29.98,-9999.0,Calm,Calm,-,N/A,,Unknown,0,2013-06-14 09:51:00
4:51 AM,33.1,32.0,96,30.01,-9999.0,Calm,Calm,-,0.05,,Unknown,0,2013-06-14 10:51:00
5:51 AM,33.1,33.1,100,30.04,-9999.0,Calm,Calm,-,N/A,,Unknown,0,2013-06-14 11:51:00
6:51 AM,34.0,33.1,96,30.05,-9999.0,Calm,Calm,-,N/A,,Unknown,0,2013-06-14 12:51:00
7:51 AM,36.0,34.0,93,30.07,-9999.0,Calm,Calm,-,N/A,,Unknown,0,2013-06-14 13:51:00
8:51 AM,37.0,34.0,89,30.09,-9999.0,Calm,Calm,-,N/A,,Unknown,0,2013-06-14 14:51:00
9:51 AM,41.0,36.0,82,30.09,-9999.0,Calm,Calm,-,N/A,,Unknown,0,2013-06-14 15:51:00
10:51 AM,44.1,32.0,63,30.09,-9999.0,Calm,Calm,-,N/A,,Unknown,0,2013-06-14 16:51:00
11:51 AM,46.0,32.0,58,30.09,-9999.0,Calm,Calm,-,N/A,,Unknown,0,2013-06-14 17:51:00
12:51 PM,46.9,30.0,52,30.09,-9999.0,NNW,4.6,-,N/A,,Unknown,340,2013-06-14 18:51:00
1:51 PM,48.9,26.1,41,30.10,-9999.0,NNW,4.6,-,N/A,,Unknown,330,2013-06-14 19:51:00
2:51 PM,50.0,28.0,43,30.09,-9999.0,NNW,8.1,-,N/A,,Unknown,330,2013-06-14 20:51:00
3:51 PM,54.0,24.1,31,30.06,-9999.0,Variable,3.5,-,N/A,,Unknown,0,2013-06-14 21:51:00
4:51 PM,55.9,23.0,28,30.04,-9999.0,Variable,5.8,-,N/A,,Unknown,0,2013-06-14 22:51:00
5:51 PM,57.9,23.0,26,30.04,-9999.0,NW,9.2,-,N/A,,Unknown,320,2013-06-14 23:51:00
6:51 PM,57.0,21.9,26,30.03,-9999.0,NNW,5.8,-,N/A,,Unknown,330,2013-06-15 00:51:00
7:51 PM,55.9,21.9,27,30.03,-9999.0,Variable,3.5,-,N/A,,Unknown,0,2013-06-15 01:51:00
8:51 PM,48.9,27.0,43,30.06,-9999.0,Calm,Calm,-,N/A,,Unknown,0,2013-06-15 02:51:00
9:51 PM,39.9,27.0,60,30.09,-9999.0,South,3.5,-,N/A,,Unknown,180,2013-06-15 03:51:00
10:51 PM,36.0,27.0,70,30.10,-9999.0,SSE,3.5,-,N/A,,Unknown,150,2013-06-15 04:51:00
11:51 PM,30.9,26.1,82,30.11,-9999.0,South,3.5,-,N/A,,Unknown,170,2013-06-15 05:51:00